DELTA 1 DEB, 14904

Orbit data source: Space-Track

DELTA 1 DEB, 14904 is space debris in SSO originally from a launch on Thu, 29 Jul 1976 UTC launched from the Air Force Western Test Range (AFWTR). Debris objects in space refer to the collection of defunct objects orbiting the Earth. Examples of debris include non-operational satellites, rocket bodies, and fragments generated from explosions, collisions, or faulty payload assembly.

Loading next visibility...
Identifier
14904, 1976-077ES
Orbit
SSO
Country
Flag of USUS
Related business
Manufacturer
Unknown
Mission
Spacecraft
Bus & Motor
Unknown
Mass
Unknown
Launch date (UTC)
1976-07-29 (49 years ago)
Launch vehicle
Unknown
Launch site
Air Force Western Test Range (AFWTR)
Object type
Payload
Rocket body
Debris
Shape & HBR
Unknown shape, 0.1 m
Radar Cross Section
Small (<0.1 m²)

Expand to show TLE details & history
Last TLE update: 20 hours ago

TLE from 20 hours ago
0 DELTA 1 DEB
1 14904U 76077ES  25349.46548841  .00000182  00000-0  11389-2 0  9993
2 14904 102.7260 245.3738 0012322 348.9069 184.5798 12.72981974569900
Epoch: 2025-12-15T11:10Z
TLE epoch observation values (Epoch: 2025-12-15T11:10:18.198Z)
Latitude
6.29443°
Longitude
174.85465°
Altitude
1,381.304 km
Speed
7.165 km/s
True Right ascension
04h 27m 10s
True Declination
6° 15' 36"
Sunlit
Object was in full shadow at epoch
Visualization orbit readout
Latitude
Unknown
Longitude
Unknown
Altitude
Unknown
Speed
Unknown
Apparent Right ascension
Unknown
Apparent Declination
Unknown
Sunlit
N/A
Visualization observer readout
Local Sidereal Time
05:36:41
Azimuth
Unknown
Elevation
Unknown
Doppler factor
Unknown
Orbital elements
Apogee altitude
1,376.937 km
Perigee altitude
1,357.849 km
Semi-major axis
7,745.53 km
Eccentricity
0.00123
Inclination
102.726°
RAAN
245.3738°
Arg. of periapsis
348.9069°
True anomaly
184.56854°
Mean anomaly
184.5798°
Eccentric anomaly
184.57417°
Mean motion
3.18395 °/min
Orbital period
113.07 mins
BSTAR
0.0011389
Loading maneuver chart data...
Computing Atmospheric mass density...
Loading historical data...
Loading historical data...
Loading historical data...
Loading historical data...
Loading historical data...
Loading historical data...
Loading historical data...

Documentation

Showing up to 5 results
|